Flag for Japan Weather past 2 weeks in Nagoya, Japan

66 °F

Rain showers. Fog.

Feels Like: 66 °F
Forecast: 55 / 71 °F
Wind: 8 mph from South

Location: Nagoya Airport

Current Time: Oct 10, 2015 at 11:52:46 PM

Latest Report: Oct 10, 2015 at 11:30 PM

Visibility: 2 mi

Pressure: 29.89 "Hg

Humidity: 94%

Dew point: 64 °F

Location of NagoyaLocation

Historic Weather in Nagoya — Graph


Nagoya temperature yesterday

Maximum temperature yesterday: 73 °F (at 12:30 PM)
Minimum temperature yesterday: 66 °F (at 12:00 AM)
Average temperature yesterday: 70 °F

Past Weeks' High & Low Weather Summary

High81 °F (Sep 28, 4:30 PM)94% (Sep 25, 10:30 PM)30.24 "Hg (Sep 25, 10:30 PM)
Low59 °F (Oct 3, 2:00 AM)31% (Sep 30, 1:00 PM)29.47 "Hg (Oct 2, 2:00 AM)
Average69 °F65%29.94 "Hg
* Reported Sep 25 10:00 PM — Oct 10 10:30 PM, Nagoya, Weather by CustomWeather, © 2015

Note: Actual official high and low records may vary slightly from our data, if they occured in-between our weather recording intervals... More about our weather records


Nagoya weather history for previous 24 hours

Time TempWeatherWind HumidityBarometerVisibility
10:30 PM
Sat, Oct 10
66 °FSprinkles. Passing clouds.9 mph88%29.92 "HgN/A
10:00 PM66 °FScattered showers. Passing clouds.10 mph88%29.89 "HgN/A
9:30 PM66 °FLight rain. Passing clouds.9 mph88%29.92 "HgN/A
9:00 PM66 °FLight rain. Passing clouds.8 mph88%29.92 "Hg5 mi
8:30 PM66 °FLight rain. Partly cloudy.13 mph88%29.92 "HgN/A
8:00 PM66 °FLight rain. Partly cloudy.10 mph83%29.92 "Hg5 mi
7:30 PM68 °FScattered showers. Passing clouds.10 mph69%29.92 "Hg5 mi
7:00 PM68 °FScattered showers. Partly cloudy.6 mph64%29.92 "HgN/A
6:30 PM68 °FPartly cloudy.6 mph64%29.92 "Hg6 mi
6:00 PM66 °FPassing clouds.6 mph73%29.92 "Hg5 mi
5:30 PM68 °FClear.7 mph69%29.89 "Hg4 mi
5:00 PM68 °FHaze.6 mph69%29.89 "Hg3 mi
4:30 PM66 °FHaze.7 mph73%29.92 "Hg3 mi
4:00 PM68 °FHaze.8 mph64%29.89 "Hg3 mi
3:30 PM68 °FHaze.5 mph69%29.89 "Hg2 mi
3:00 PM68 °FHaze.6 mph69%29.89 "Hg3 mi
2:30 PM68 °FHaze.3 mph64%29.89 "Hg3 mi
2:00 PM68 °FHaze.2 mph64%29.89 "Hg3 mi
1:30 PM68 °FClear.2 mph64%29.89 "Hg4 mi
1:00 PM68 °FClear.5 mph64%29.89 "Hg4 mi
12:30 PM68 °FClear.6 mph64%29.89 "Hg4 mi
12:00 PM68 °FClear.6 mph69%29.89 "Hg4 mi
11:30 AM66 °FHaze.7 mph68%29.89 "Hg3 mi
11:00 AM66 °FHaze.6 mph73%29.92 "Hg3 mi
10:30 AM66 °FHaze.3 mph73%29.92 "Hg3 mi
10:00 AM66 °FClear.8 mph73%29.92 "Hg4 mi
9:30 AM66 °FClear.10 mph68%29.92 "Hg4 mi
9:00 AM64 °FClear.9 mph73%29.92 "Hg4 mi
8:30 AM64 °FClear.9 mph73%29.92 "Hg4 mi
8:00 AM63 °FClear.9 mph77%29.92 "Hg4 mi
7:30 AM63 °FClear.10 mph83%29.89 "Hg4 mi
7:00 AM63 °FClear.12 mph77%29.89 "Hg4 mi
6:00 AM59 °FClear.7 mph88%29.92 "Hg4 mi
5:30 AM61 °FClear.3 mph83%29.89 "Hg5 mi
5:00 AM59 °FClear.6 mph82%29.89 "Hg5 mi
4:30 AM61 °FClear.6 mph83%29.89 "Hg5 mi
4:00 AM61 °FClear.8 mph83%29.89 "Hg5 mi
3:30 AM61 °FClear.7 mph77%29.89 "Hg5 mi
3:00 AM59 °FClear.6 mph82%29.86 "Hg5 mi
2:30 AM61 °FClear.5 mph77%29.86 "Hg5 mi
2:00 AM63 °FClear.2 mph77%29.86 "Hg5 mi
1:30 AM63 °FClear.3 mph77%29.86 "Hg6 mi
1:00 AM64 °FClear.7 mph78%29.86 "Hg10 mi
12:30 AM68 °FClear.9 mph64%29.86 "Hg10 mi
11:30 PM
Fri, Oct 9
70 °FClear.7 mph60%29.86 "Hg10 mi
11:00 PM70 °FClear.10 mph60%29.86 "Hg10 mi
Weather by CustomWeather, © 2015

See weather overviewHow to use our weather pages